Meteo Giornale » Osservazioni meteo Francia » Parigi-Orly

ore: 17:30 - Osservazioni Meteo Parigi-Orly
Lat. 48° 44' N Lon. 2° 24' E Alt. 89 metri s.l.m.

sereno Europe/Paris

18 °C

Sereno

Temp. 24 Ore

12 °C

21 °C

Nord/Nord-Est

27.8 Km/h

Dew point 11 °C

Umidità 63 %

Visibilità  10 Km

Il sole sorge alle ore 08:14

Il sole tramonta alle ore 18:56

Data e Ora Cielo e Fenomeni T °C DP °C Um. % Pres. hPa Vis. km Vento km/h
Oggi h: 17:30 sereno Sereno 18 11 63 1020 10 N/NE 27.8
Oggi h: 17:00 poco_nuvoloso Poco Nuvoloso 18 12 67 1020 10 N/NE 27.8
Oggi h: 16:30 poco_nuvoloso Poco Nuvoloso 19 12 63 1020 10 N/NE 31.5
Oggi h: 16:00 poco_nuvoloso Poco Nuvoloso 20 12 59 1020 10 N 27.8
Oggi h: 15:30 sereno Sereno 21 12 56 1020 10 N/NE 24
Oggi h: 15:00 sereno Sereno 21 12 56 1020 10 N 24
Oggi h: 14:30 sereno Sereno 20 12 59 1021 10 N 18.5
Oggi h: 14:00 sereno Sereno 20 12 59 1021 10 N/NE 20.3
Oggi h: 13:30 sereno Sereno 20 12 59 1021 10 N/NE 20.3
Oggi h: 13:00 sereno Sereno 19 12 63 1021 10 N/NE 16.7
Oggi h: 12:30 sereno Sereno 18 12 67 1021 10 NE 18.5
Oggi h: 12:00 sereno Sereno 17 12 72 1021 10 NE 22.2
Oggi h: 11:30 sereno Sereno 16 12 77 1022 10 NE 20.3
Oggi h: 11:00 sereno Sereno 15 11 76 1021 10 NE 24
Oggi h: 10:30 sereno Sereno 15 11 76 1021 10 NE 18.5
Oggi h: 10:00 sereno Sereno 14 11 82 1021 10 N/NE 18.5
Oggi h: 09:30 sereno Sereno 13 11 87 1021 10 N/NE 20.3
Oggi h: 09:00 sereno Sereno 12 10 87 1021 10 N/NE 18.5
Oggi h: 08:30 sereno Sereno 12 10 87 1021 8 N/NE 18.5
Oggi h: 08:00 sereno Sereno 12 10 87 1021 8 N 20.3
Oggi h: 07:30 sereno Sereno 12 10 87 1021 9 N 18.5
Oggi h: 07:00 sereno Sereno 12 10 87 1020 9 N/NE 16.7
Oggi h: 06:30 sereno Sereno 13 10 81 1020 7 N/NE 18.5
Oggi h: 06:00 sereno Sereno 13 10 81 1020 7 N 20.3
Oggi h: 05:30 sereno Sereno 13 11 87 1020 7 N 16.7
Oggi h: 05:00 sereno Sereno 13 11 87 1020 7 N 16.7
Oggi h: 04:30 sereno Sereno 13 11 87 1020 7 N 18.5
Oggi h: 04:00 sereno Sereno 13 11 87 1020 8 N 16.7
Oggi h: 03:30 sereno Sereno 14 12 87 1020 10 N 16.7
Oggi h: 03:00 sereno Sereno 14 11 82 1020 10 N 14.8
Oggi h: 02:30 sereno Sereno 14 12 87 1020 10 N 14.8
Oggi h: 02:00 sereno Sereno 14 11 82 1020 10 N 13
Oggi h: 01:30 sereno Sereno 15 11 76 1020 10 N 13
Oggi h: 01:00 sereno Sereno 15 11 76 1020 10 N/NE 14.8
Oggi h: 00:30 sereno Sereno 15 12 82 1020 10 N 13
Oggi h: 00:00 sereno Sereno 16 12 77 1020 10 N 13
Ieri h: 23:30 sereno Sereno 16 12 77 1020 10 N/NE 13
Ieri h: 23:00 sereno Sereno 16 11 72 1020 10 N/NE 13
Ieri h: 22:30 sereno Sereno 17 11 67 1019 10 N/NE 13
Ieri h: 22:00 sereno Sereno 17 11 67 1019 10 N/NE 11.1
Ieri h: 21:30 sereno Sereno 17 11 67 1019 10 N/NE 13
Ieri h: 21:00 sereno Sereno 17 11 67 1019 10 N/NE 13
Ieri h: 20:30 sereno Sereno 18 11 63 1019 10 N/NE 13
Ieri h: 20:00 sereno Sereno 17 11 67 1018 10 N/NE 13
Ieri h: 19:30 sereno Sereno 18 12 67 1018 10 N 11.1
Ieri h: 19:00 sereno Sereno 19 12 63 1018 10 N 11.1